This is the latest recevied weather packets stored in our database for station/object K7KAR-2. If no packets are shown the sender has not sent any weather packets the latest 10 day(s).
| Time | Temp. | Humidity | Pressure | Rain* | Wind** | Luminosity | Snow |
|---|---|---|---|---|---|---|---|
| 1778262943 | 18.89° C | 17% | 1012.4 hPa | 0 mm | - | 767 W/m² | - |
| 1778262641 | 18.89° C | 18% | 1012.6 hPa | 0 mm | - | 882 W/m² | - |
| 1778262338 | 18.33° C | 18% | 1012.8 hPa | 0 mm | - | 720 W/m² | - |
| 1778262035 | 18.33° C | 18% | 1012.8 hPa | 0 mm | - | 865 W/m² | - |
| 1778261732 | 18.33° C | 19% | 1012.9 hPa | 0 mm | - | 640 W/m² | - |
| 1778261427 | 18.33° C | 17% | 1013.2 hPa | 0 mm | - | 499 W/m² | - |
| 1778261125 | 18.33° C | 19% | 1013.2 hPa | 0 mm | - | 720 W/m² | - |
| 1778260821 | 17.78° C | 22% | 1012.9 hPa | 0 mm | - | 571 W/m² | - |
| 1778260518 | 17.78° C | 22% | 1013.3 hPa | 0 mm | - | 692 W/m² | - |
| 1778260214 | 17.78° C | 21% | 1013.2 hPa | 0 mm | - | 710 W/m² | - |
| 1778259912 | 17.22° C | 23% | 1013.2 hPa | 0 mm | - | 329 W/m² | - |
| 1778259609 | 16.67° C | 25% | 1013.4 hPa | 0 mm | - | 301 W/m² | - |
| 1778259307 | 16.67° C | 25% | 1013.3 hPa | 0 mm | - | 303 W/m² | - |
| 1778259003 | 17.22° C | 25% | 1013.4 hPa | 0 mm | - | 275 W/m² | - |
| 1778258699 | 17.22° C | 25% | 1013 hPa | 0 mm | - | 271 W/m² | - |
| 1778258396 | 17.22° C | 24% | 1013.3 hPa | 0 mm | - | 294 W/m² | - |
| 1778258094 | 17.22° C | 24% | 1013.5 hPa | 0 mm | - | 270 W/m² | - |
| 1778257789 | 17.22° C | 23% | 1013.3 hPa | 0 mm | - | 355 W/m² | - |
| 1778257488 | 17.78° C | 24% | 1013.4 hPa | 0 mm | - | 355 W/m² | - |
| 1778257184 | 16.67° C | 24% | 1013.3 hPa | 0 mm | - | 406 W/m² | - |
| 1778256881 | 16.67° C | 26% | 1013.6 hPa | 0 mm | - | 346 W/m² | - |
| 1778256578 | 16.67° C | 26% | 1013.5 hPa | 0 mm | - | 1004 W/m² | - |
| 1778256277 | 16.11° C | 29% | 1013.7 hPa | 0 mm | - | 799 W/m² | - |
| 1778255973 | 17.22° C | 27% | 1013.6 hPa | 0 mm | - | 611 W/m² | - |
| 1778255670 | 17.22° C | 27% | 1013.6 hPa | 0 mm | - | 843 W/m² | - |
* Rain latest hour (hover to see other rain measurements)
** Current wind speed in m/s (hover to see current wind gust speed)